Back to catalog

COSMOS 1037

AliveMilitaryLEO
NORAD 11046·PAYLOAD·🇷🇺 Russia

Launched Oct 4, 1978 from Plesetsk Cosmodrome

Loading…

Next Passes (next 24 hours)

TLE

FreshSource: Space-Track

Epoch: Sep 14, 2026, 11:07 UTC

1 11046U 78091D   26257.46324372 -.00000010  00000-0  41389-4 0  9991
2 11046  74.0336 288.8244 0012417 161.9061 264.7743 12.48412064185034

Track COSMOS 1037 in real time with AllMySat

Download on the App Store